Wind_Speed
30 31 31 31 31 32 33 33 34 34 34 34 34 34 35 35 36 36 35 35 36 37 37 37 37 37 37 37 37 38 39 39 40 40 40 40 41 41 42 42 43 43 43 44
30 30 30 30 31 32 32 32 33 33 34 34 34 34 35 36 36 36 35 35 36 37 38 38 38 38 38 38 37 37 38 40 40 41 41 41 42 42 43 43 43 44 45 45
28 29 29 29 30 30 31 32 33 34 34 35 35 35 34 35 36 36 36 37 37 38 39 40 40 40 40 40 40 40 40 40 41 41 42 42 43 43 44 44 45 45 46 47
27 28 29 29 30 30 30 31 32 33 34 35 35 36 34 34 35 36 36 36 36 37 38 38 39 40 41 41 41 41 41 41 40 41 42 44 44 44 44 45 45 46 46 47
28 28 28 28 29 30 30 30 31 32 33 35 35 37 35 34 34 34 35 36 36 36 36 37 38 39 39 40 41 41 42 42 42 42 42 43 44 45 45 46 45 45 46 47
27 27 28 28 28 29 30 30 30 31 32 34 33 35 35 32 32 33 34 36 36 36 36 37 38 39 40 40 41 41 42 42 42 43 43 43 44 45 45 45 46 46 47 48
26 26 27 27 28 28 29 29 30 31 32 33 32 33 33 31 31 31 33 34 35 36 37 37 37 38 38 39 40 41 41 42 42 42 43 44 45 45 46 46 46 47 48 48
27 26 27 27 28 28 29 29 30 31 32 32 32 33 31 31 30 30 31 31 32 33 35 36 36 36 36 37 38 39 39 40 40 41 41 42 43 44 44 45 45 46 47 47
27 27 26 27 28 28 28 29 29 31 32 33 32 31 30 30 30 29 29 29 30 31 31 32 34 34 35 35 36 37 37 38 39 39 40 40 41 42 42 43 44 45 45 46
28 28 27 27 28 29 29 28 29 30 32 32 32 30 29 28 28 28 28 28 29 30 30 31 32 33 34 35 36 36 37 38 38 39 39 40 40 41 41 42 43 43 44 44
28 28 28 27 27 28 29 29 29 30 32 32 32 29 28 28 27 27 28 28 28 28 29 30 31 32 32 34 35 36 37 38 38 39 39 40 40 41 41 41 42 42 43 43
28 28 28 27 27 28 29 29 29 30 32 32 32 30 28 28 28 27 28 28 28 28 28 29 30 31 31 33 34 35 36 37 38 38 39 39 39 40 40 41 41 42 42 43
27 28 28 28 28 27 27 28 28 29 30 31 31 29 28 28 29 28 28 29 29 29 30 30 30 31 32 33 34 34 35 36 36 37 37 37 38 38 39 39 40 41 42 42
27 27 28 28 27 28 27 27 28 29 29 30 30 28 27 29 29 29 30 30 30 30 31 32 32 32 33 34 34 35 35 35 35 36 36 36 37 38 38 39 39 40 40 41
26 26 26 26 26 27 27 27 27 28 29 30 28 28 26 28 29 29 29 30 30 30 31 32 32 33 33 34 34 34 34 34 35 35 36 37 37 38 38 38 38 39 39 39
26 26 25 25 26 27 27 27 27 28 29 29 29 27 26 28 29 29 29 29 29 29 30 31 31 32 32 32 33 33 33 34 35 35 36 36 36 36 37 37 37 37 37 37
25 25 25 26 26 27 28 26 27 27 28 29 30 28 28 29 29 29 29 29 29 29 29 30 31 31 31 31 32 32 33 33 34 34 35 35 35 35 35 35 35 35 35 36
25 26 27 27 27 28 26 26 27 27 28 29 30 30 30 30 30 29 29 30 29 29 29 30 30 30 31 31 32 32 32 32 32 33 34 34 34 34 34 35 35 35 34 35
25 26 27 27 29 28 26 26 27 28 28 29 30 30 29 30 30 30 30 30 30 30 30 30 30 31 31 31 31 31 31 31 31 32 32 32 32 33 33 33 33 33 33 33
25 26 27 28 29 29 27 26 27 29 29 28 30 30 29 30 30 29 30 31 31 31 30 30 31 31 31 30 30 30 30 31 30 30 29 29 30 30 30 30 30 30 31 31
25 26 27 27 29 28 27 28 28 29 29 29 29 30 30 30 30 29 30 30 31 31 31 31 31 30 30 30 30 29 29 29 28 28 27 27 27 27 28 27 27 27 28 29
25 25 26 27 27 26 26 27 28 28 29 29 29 29 29 29 29 30 31 30 30 31 31 31 30 30 29 28 28 27 27 27 27 26 25 25 25 25 25 25 24 25 25 26
24 25 26 27 26 26 27 28 28 28 28 28 27 27 27 28 28 30 30 31 31 30 30 30 30 29 28 27 27 26 26 26 25 24 24 24 24 23 23 23 23 23 24 24
23 24 26 26 25 26 27 27 27 27 27 27 27 26 26 27 28 28 29 29 29 29 30 29 28 27 27 26 25 24 24 24 23 22 22 22 22 22 22 22 22 22 22 23
23 24 25 25 24 25 25 26 27 27 27 27 27 27 27 27 28 28 28 28 28 28 27 26 26 26 25 25 24 23 23 22 21 21 21 21 21 21 21 21 21 21 21 22
22 23 24 24 24 24 24 24 25 25 26 26 27 27 28 28 28 28 28 27 26 25 24 24 23 23 23 23 23 22 22 21 21 21 21 20 20 20 20 20 20 20 20 20
Wind_Direction
259 257 257 258 258 259 260 259 258 257 258 258 258 257 255 253 253 254 254 255 257 258 258 258 257 258 258 259 259 259 258 259 258 259 259 259 259 261 262 264 265 267 268 269
259 257 257 258 258 259 259 258 258 258 259 259 257 256 256 254 254 255 255 256 257 258 258 259 258 258 259 260 260 261 260 259 258 259 259 260 260 261 263 265 267 267 267 269
261 259 257 257 258 258 259 259 259 259 259 259 259 257 256 256 256 256 257 257 258 259 260 261 261 260 260 261 261 261 262 261 259 259 259 260 261 262 264 266 267 268 269 270
261 259 258 259 259 259 259 260 260 259 259 259 260 260 257 257 258 258 258 259 260 260 261 261 261 262 262 262 262 262 262 261 261 261 260 260 261 263 264 265 267 268 270 271
261 258 258 260 261 260 260 260 260 260 261 261 260 261 259 259 259 260 260 261 261 262 262 262 262 262 263 263 263 263 263 262 262 262 263 263 263 263 265 265 267 269 271 272
260 258 259 261 261 260 260 260 260 260 261 261 261 263 262 260 261 261 262 262 262 263 264 264 263 263 264 263 263 263 264 264 265 265 265 266 266 266 266 267 268 270 272 273
261 260 260 260 261 260 259 259 260 261 262 263 264 264 264 263 263 263 263 264 264 265 265 265 264 264 264 263 263 262 263 264 265 266 266 266 267 267 268 268 269 269 271 272
263 263 263 262 261 262 260 260 261 263 265 266 266 265 265 266 266 266 265 264 264 265 266 266 266 266 265 264 263 263 263 264 265 266 267 268 268 268 268 269 269 270 270 271
265 263 262 263 262 262 261 260 261 263 265 266 267 267 266 266 267 267 267 266 265 266 266 266 266 266 266 265 265 264 265 265 265 266 267 268 268 269 269 269 270 270 271 272
265 264 262 263 262 262 262 261 261 262 265 267 269 269 268 267 268 267 268 268 267 267 267 267 267 267 267 267 266 266 266 267 267 267 268 268 269 269 270 270 271 272 273 274
265 263 262 262 264 264 262 261 261 262 264 267 269 269 269 269 270 269 268 268 268 268 268 268 268 268 268 268 268 268 268 268 269 269 269 269 269 270 271 272 272 274 275 276
264 263 262 262 264 264 262 262 262 262 264 265 268 269 269 269 270 269 268 267 267 268 269 269 269 269 269 269 270 269 269 269 269 270 270 271 271 271 272 273 274 275 275 276
265 264 263 262 263 263 263 262 261 262 263 264 267 269 269 269 269 269 268 268 269 269 268 269 269 270 270 271 271 271 270 270 271 271 271 271 271 272 273 273 274 275 276 277
265 264 263 264 263 262 262 262 261 261 263 266 268 269 270 271 270 269 269 269 270 269 268 269 270 271 272 272 273 272 272 272 273 273 272 272 273 274 274 274 274 275 276 277
265 264 264 263 262 261 262 262 262 263 265 268 270 270 270 270 270 269 269 270 271 271 270 270 271 272 273 274 274 273 272 273 274 274 274 274 274 275 275 275 276 276 277 278
265 266 265 264 263 262 262 263 264 265 267 269 271 272 272 271 270 270 270 272 272 272 271 270 271 273 274 274 274 274 274 274 275 276 276 276 276 276 276 276 277 278 278 279
264 266 266 265 264 264 264 266 267 267 268 270 272 273 272 271 270 270 272 272 273 273 273 273 273 274 274 274 274 276 276 277 277 277 277 277 277 277 276 277 278 279 279 280
268 267 268 267 265 266 269 267 267 268 270 272 273 273 272 271 270 270 272 273 274 274 274 273 273 274 275 275 275 277 278 278 278 278 279 278 277 277 277 277 278 278 279 280
267 267 269 269 268 268 268 269 269 270 270 272 274 274 273 273 273 273 273 273 275 274 273 273 273 274 275 276 277 277 278 278 278 279 279 278 278 278 278 278 278 279 280 281
267 267 269 271 271 271 271 271 270 272 273 273 273 273 273 272 273 274 274 274 275 275 274 273 274 275 275 276 277 277 277 278 278 278 278 278 279 280 279 279 280 280 281 282
267 268 270 272 274 275 274 273 273 274 275 274 274 274 272 272 273 273 275 276 277 276 275 274 274 275 276 276 277 277 277 277 277 278 279 279 280 280 280 281 282 282 283 284
269 270 271 273 275 278 278 275 274 275 274 273 273 274 274 273 274 275 276 278 278 277 276 274 274 274 275 276 276 276 276 276 277 278 279 281 281 281 282 282 283 284 285 287
269 271 272 275 276 277 276 275 274 274 274 275 275 276 275 275 276 277 277 277 277 276 275 275 274 273 274 274 274 275 275 275 276 277 279 281 282 282 282 282 284 287 288 289
272 271 273 275 275 275 275 273 273 272 273 274 275 275 276 277 278 278 278 278 277 276 275 274 273 271 271 272 272 273 273 274 275 277 279 281 282 281 281 283 286 289 291 291
273 274 276 277 277 276 277 276 273 272 273 273 275 275 276 279 280 280 280 280 278 277 275 273 271 270 269 268 269 270 272 273 274 276 278 280 282 281 281 285 288 290 292 293
273 276 279 280 279 278 279 278 274 274 275 276 276 276 276 279 280 281 282 281 279 278 275 272 269 268 267 266 267 268 269 270 273 276 277 278 281 281 283 287 290 291 293 295
Height
5678 5680 5682 5684 5684 5685 5685 5686 5688 5689 5689 5690 5691 5693 5695 5696 5698 5700 5702 5704 5706 5708 5709 5711 5712 5713 5714 5716 5717 5718 5720 5720 5722 5723 5724 5726 5727 5728 5729 5729 5730 5730 5731 5731
5671 5673 5675 5675 5676 5676 5677 5678 5680 5680 5680 5681 5682 5684 5686 5688 5690 5692 5694 5696 5697 5699 5700 5702 5703 5704 5705 5707 5708 5709 5710 5711 5712 5713 5715 5716 5717 5718 5719 5720 5720 5721 5721 5721
5664 5667 5667 5668 5668 5669 5670 5671 5672 5672 5672 5672 5674 5676 5679 5680 5682 5683 5685 5687 5689 5690 5691 5692 5693 5695 5696 5697 5699 5700 5701 5702 5703 5704 5705 5706 5707 5708 5709 5710 5710 5710 5711 5711
5657 5659 5660 5660 5661 5662 5663 5664 5663 5663 5664 5665 5666 5667 5672 5673 5674 5675 5677 5678 5679 5681 5682 5683 5684 5685 5686 5688 5689 5690 5691 5692 5693 5694 5695 5696 5697 5698 5699 5699 5700 5700 5699 5699
5651 5652 5653 5653 5655 5655 5655 5656 5656 5656 5656 5656 5658 5658 5664 5665 5666 5668 5669 5670 5670 5671 5672 5673 5674 5675 5676 5678 5679 5680 5681 5682 5683 5684 5685 5686 5687 5688 5688 5689 5689 5689 5689 5688
5644 5645 5646 5647 5648 5648 5648 5649 5648 5648 5648 5649 5652 5652 5655 5658 5660 5660 5661 5661 5662 5663 5663 5664 5665 5666 5667 5668 5669 5670 5672 5673 5674 5675 5675 5676 5677 5677 5678 5678 5678 5678 5678 5677
5638 5638 5639 5640 5640 5641 5641 5642 5642 5641 5641 5643 5645 5644 5648 5651 5652 5652 5652 5653 5653 5654 5654 5655 5656 5657 5657 5658 5659 5661 5662 5663 5664 5664 5665 5665 5666 5666 5667 5667 5667 5667 5667 5666
5631 5632 5633 5633 5634 5634 5635 5636 5636 5636 5635 5637 5637 5638 5643 5644 5644 5644 5644 5644 5645 5645 5645 5646 5647 5647 5648 5649 5650 5651 5652 5653 5654 5654 5655 5655 5655 5655 5656 5656 5655 5655 5655 5654
5624 5625 5626 5627 5627 5628 5627 5628 5629 5629 5628 5629 5630 5632 5635 5636 5636 5636 5637 5637 5637 5637 5637 5638 5638 5639 5639 5640 5641 5642 5642 5643 5644 5644 5644 5644 5645 5645 5644 5644 5644 5644 5643 5643
5617 5618 5619 5620 5620 5620 5621 5622 5622 5621 5621 5621 5623 5625 5628 5629 5628 5629 5629 5629 5629 5629 5630 5630 5630 5630 5631 5631 5632 5632 5633 5633 5633 5634 5634 5634 5634 5634 5634 5633 5633 5632 5632 5631
5610 5611 5612 5612 5613 5614 5615 5615 5614 5614 5615 5615 5616 5621 5621 5621 5621 5621 5621 5621 5621 5622 5622 5622 5622 5622 5622 5622 5623 5623 5623 5623 5623 5624 5624 5624 5624 5623 5623 5623 5622 5621 5620 5620
5602 5603 5604 5605 5606 5606 5607 5608 5608 5609 5609 5609 5609 5615 5613 5613 5613 5613 5613 5613 5613 5614 5614 5614 5614 5614 5614 5614 5614 5614 5614 5614 5614 5613 5613 5613 5613 5612 5612 5612 5611 5610 5609 5608
5595 5595 5596 5598 5600 5600 5599 5600 5601 5601 5601 5601 5602 5607 5606 5605 5605 5605 5605 5605 5605 5606 5606 5605 5605 5605 5605 5605 5605 5604 5604 5604 5604 5603 5603 5603 5602 5602 5601 5601 5600 5599 5598 5597
5587 5588 5590 5591 5591 5592 5593 5594 5593 5593 5593 5594 5595 5598 5599 5597 5597 5597 5597 5597 5597 5597 5597 5597 5597 5597 5596 5596 5596 5595 5594 5594 5594 5593 5593 5593 5592 5591 5591 5590 5589 5588 5587 5585
5580 5581 5582 5583 5584 5584 5585 5586 5587 5586 5587 5587 5589 5589 5591 5589 5589 5589 5589 5589 5589 5589 5588 5588 5588 5588 5587 5587 5586 5586 5585 5585 5584 5584 5583 5582 5581 5581 5580 5579 5578 5577 5576 5574
5574 5575 5575 5576 5577 5576 5577 5579 5580 5580 5580 5580 5580 5582 5583 5581 5580 5580 5580 5580 5580 5580 5580 5579 5579 5579 5578 5578 5577 5576 5576 5575 5574 5574 5573 5572 5571 5570 5569 5568 5568 5567 5565 5564
5568 5568 5568 5569 5570 5569 5571 5574 5573 5573 5573 5573 5572 5575 5574 5573 5573 5573 5573 5572 5572 5571 5571 5571 5570 5570 5569 5569 5568 5567 5567 5566 5565 5564 5563 5562 5561 5560 5559 5558 5557 5556 5555 5554
5561 5561 5561 5562 5563 5562 5569 5566 5566 5565 5566 5565 5565 5565 5565 5565 5564 5564 5564 5564 5563 5563 5562 5562 5561 5561 5560 5559 5559 5558 5557 5556 5555 5554 5553 5552 5551 5550 5549 5548 5548 5547 5546 5544
5555 5555 5554 5554 5554 5555 5560 5559 5558 5557 5558 5557 5556 5556 5556 5556 5556 5556 5556 5555 5555 5554 5553 5553 5553 5552 5551 5551 5550 5549 5548 5547 5546 5545 5544 5542 5542 5541 5540 5539 5538 5537 5536 5535
5548 5548 5548 5547 5546 5548 5553 5551 5549 5549 5549 5549 5548 5547 5547 5547 5548 5549 5547 5546 5546 5545 5545 5544 5544 5543 5542 5542 5541 5540 5539 5538 5537 5536 5535 5534 5533 5532 5531 5530 5529 5528 5527 5526
5541 5541 5541 5540 5539 5540 5543 5542 5541 5542 5542 5540 5539 5539 5539 5539 5540 5540 5538 5538 5537 5536 5536 5535 5535 5534 5533 5533 5532 5531 5530 5530 5529 5528 5527 5526 5525 5524 5523 5522 5521 5520 5519 5517
5534 5534 5534 5533 5532 5536 5535 5533 5534 5533 5532 5531 5531 5530 5530 5530 5530 5530 5530 5529 5528 5527 5527 5526 5526 5525 5524 5524 5523 5523 5522 5522 5521 5520 5520 5519 5518 5517 5516 5515 5513 5512 5511 5509
5528 5528 5527 5527 5528 5528 5526 5525 5525 5524 5524 5523 5523 5523 5523 5522 5522 5522 5521 5520 5519 5518 5518 5517 5517 5516 5516 5516 5515 5515 5514 5514 5514 5513 5513 5512 5511 5510 5509 5508 5506 5505 5504 5502
5521 5520 5519 5519 5520 5519 5518 5517 5517 5516 5516 5516 5515 5515 5515 5514 5514 5513 5512 5511 5510 5509 5509 5508 5508 5508 5508 5508 5508 5507 5507 5507 5507 5507 5506 5505 5504 5503 5502 5501 5500 5499 5497 5495
5515 5513 5512 5512 5513 5511 5511 5510 5509 5508 5508 5508 5508 5508 5507 5507 5506 5505 5504 5503 5502 5501 5500 5500 5500 5500 5500 5500 5500 5500 5500 5501 5501 5500 5500 5499 5498 5497 5496 5495 5494 5493 5491 5489
5509 5508 5507 5506 5506 5504 5504 5503 5502 5502 5501 5501 5500 5500 5500 5499 5498 5497 5496 5495 5494 5493 5492 5492 5492 5492 5492 5493 5493 5493 5494 5494 5495 5494 5494 5493 5492 5491 5491 5489 5488 5487 5485 5483